Location: Oberkirch
(48.5323°N, 8.0787°E)
Time: 20:46:17
(UTC+00:00)

Vanguard 3 - Visible Passes

Search period start: 18 February 2026 00:00
Search period end: 28 February 2026 00:00
Orbit: 507 x 3205 km, 33.3° (Epoch: 18 February)

Date Brightness Start Highest point End Pass type
(mag) Time Alt. Az. Time Alt. Az. Time Alt. Az.
18 Feb 9.1 18:04:46 10° SW 18:08:50 17° SSW 18:11:58 10° SSE visible
19 Feb 9.2 18:55:21 10° SW 18:57:36 12° SSW 18:59:33 10° S visible
20 Feb 9.3 17:31:17 10° WSW 17:36:46 20° SSW 17:40:43 10° SSE visible
21 Feb 9.3 18:21:47 10° WSW 18:25:32 15° SSW 18:28:30 10° S visible
23 Feb 9.5 17:48:08 10° WSW 17:53:23 18° SSW 17:57:17 10° SSE visible
24 Feb 9.9 18:40:29 10° SW 18:41:52 11° SW 18:43:10 10° SSW visible
26 Feb 10.0 18:05:58 10° WSW 18:09:37 13° SW 18:12:38 10° S visible
